TimeEDT,TemperatureF,Dew PointF,Humidity,Sea Level PressureIn,VisibilityMPH,Wind Direction,Wind SpeedMPH,Gust SpeedMPH,PrecipitationIn,Events,Conditions,WindDirDegrees,DateUTC
12:00 AM,69.8,66.2,88,30.11,10.0,Calm,Calm,-,N/A,,Overcast,0,2013-06-10 04:00:00
12:03 AM,69.8,66.2,88,30.11,10.0,Calm,Calm,-,N/A,,Overcast,0,2013-06-10 04:03:00
12:53 AM,68.0,66.0,93,30.03,9.0,Variable,3.5,-,0.01,Rain,Light Rain,0,2013-06-10 04:53:00
1:05 AM,69.8,66.2,88,30.08,10.0,Calm,Calm,-,0.00,,Overcast,0,2013-06-10 05:05:00
1:15 AM,69.8,66.2,88,30.09,9.0,Variable,3.5,-,0.00,Rain,Light Rain,0,2013-06-10 05:15:00
1:26 AM,69.8,66.2,88,30.07,10.0,Calm,Calm,-,0.00,,Overcast,0,2013-06-10 05:26:00
1:53 AM,68.0,66.0,93,30.00,8.0,Calm,Calm,-,0.00,,Overcast,0,2013-06-10 05:53:00
2:53 AM,69.1,66.9,93,29.98,9.0,South,4.6,-,N/A,,Overcast,190,2013-06-10 06:53:00
3:49 AM,69.8,66.2,88,30.03,8.0,Variable,6.9,-,0.02,Rain,Rain,0,2013-06-10 07:49:00
3:53 AM,70.0,66.9,90,29.98,9.0,South,10.4,-,0.02,Rain,Light Rain,190,2013-06-10 07:53:00
4:00 AM,69.8,66.2,88,30.03,10.0,South,10.4,-,0.01,Rain,Light Rain,190,2013-06-10 08:00:00
4:46 AM,69.8,66.2,88,30.03,3.0,SSW,8.1,-,0.07,Rain,Heavy Rain,200,2013-06-10 08:46:00
4:53 AM,69.1,66.9,93,29.97,4.0,South,5.8,-,0.09,Rain,Rain,190,2013-06-10 08:53:00
5:12 AM,69.8,66.2,88,30.02,8.0,South,8.1,-,0.03,Rain,Light Rain,190,2013-06-10 09:12:00
5:34 AM,69.8,66.2,88,30.02,10.0,South,8.1,-,0.03,Rain,Light Rain,190,2013-06-10 09:34:00
5:53 AM,70.0,66.9,90,29.96,10.0,South,9.2,17.3,0.03,,Overcast,190,2013-06-10 09:53:00
5:59 AM,69.8,66.2,88,30.02,10.0,South,9.2,16.1,N/A,,Overcast,190,2013-06-10 09:59:00
6:53 AM,70.0,66.9,90,29.96,10.0,SSW,10.4,-,N/A,,Overcast,200,2013-06-10 10:53:00
7:10 AM,69.8,66.2,88,30.02,10.0,South,11.5,17.3,N/A,,Overcast,190,2013-06-10 11:10:00
7:24 AM,69.8,66.2,88,30.03,10.0,SSW,11.5,-,N/A,,Overcast,200,2013-06-10 11:24:00
7:43 AM,69.8,66.2,88,30.03,10.0,SSW,8.1,-,N/A,,Overcast,200,2013-06-10 11:43:00
7:53 AM,70.0,66.9,90,29.96,8.0,SSW,10.4,-,0.00,Rain,Light Rain,200,2013-06-10 11:53:00
8:53 AM,70.0,66.9,90,29.97,2.0,SSW,11.5,17.3,0.07,Rain,Light Rain,200,2013-06-10 12:53:00
9:02 AM,69.8,66.2,88,30.03,2.5,South,9.2,-,0.02,Rain,Light Rain,190,2013-06-10 13:02:00
9:09 AM,69.8,68.0,94,30.03,5.0,SSW,10.4,-,0.02,Rain,Light Rain,200,2013-06-10 13:09:00
9:19 AM,69.8,68.0,94,30.03,3.0,South,9.2,-,0.03,Rain,Rain,190,2013-06-10 13:19:00
9:30 AM,69.8,66.2,88,30.02,9.0,South,6.9,-,0.04,Rain,Light Rain,190,2013-06-10 13:30:00
9:51 AM,71.6,66.2,83,30.02,8.0,SSW,11.5,17.3,0.04,Rain,Light Rain,210,2013-06-10 13:51:00
9:53 AM,71.1,66.9,87,29.96,8.0,SSW,10.4,17.3,0.04,Rain,Light Rain,200,2013-06-10 13:53:00
10:00 AM,69.8,68.0,94,30.02,1.8,SSW,9.2,18.4,0.05,Rain,Heavy Rain,210,2013-06-10 14:00:00
10:07 AM,71.6,68.0,88,30.02,3.0,SSW,10.4,-,0.05,Rain,Light Rain,210,2013-06-10 14:07:00
10:14 AM,71.6,68.0,88,30.02,2.5,SSW,10.4,-,0.09,Rain,Rain,200,2013-06-10 14:14:00
10:22 AM,69.8,68.0,94,30.01,0.8,SW,9.2,-,0.20,Rain,Heavy Rain,230,2013-06-10 14:22:00
10:26 AM,69.8,68.0,94,30.01,1.0,SW,8.1,-,0.21,Rain,Heavy Rain,220,2013-06-10 14:26:00
10:37 AM,71.6,68.0,88,30.01,2.5,SSW,8.1,-,0.24,Rain,Rain,210,2013-06-10 14:37:00
10:53 AM,71.1,68.0,90,29.95,3.0,SSW,6.9,-,0.27,Rain,Light Rain,200,2013-06-10 14:53:00
11:04 AM,71.6,69.8,94,30.01,2.0,SW,13.8,23.0,0.00,Rain,Light Rain,220,2013-06-10 15:04:00
11:13 AM,71.6,68.0,88,30.01,9.0,SSW,9.2,20.7,0.00,Rain,Light Rain,210,2013-06-10 15:13:00
11:53 AM,73.9,69.1,85,29.94,10.0,SSW,13.8,21.9,0.00,,Overcast,200,2013-06-10 15:53:00
12:17 PM,73.4,68.0,83,30.00,10.0,SSW,12.7,19.6,N/A,,Mostly Cloudy,200,2013-06-10 16:17:00
12:33 PM,75.2,69.8,83,30.00,10.0,SSW,12.7,19.6,0.00,Rain,Light Rain,210,2013-06-10 16:33:00
12:51 PM,73.4,69.8,88,29.99,10.0,SSW,12.7,20.7,0.01,Rain,Light Rain,200,2013-06-10 16:51:00
12:53 PM,73.9,69.1,85,29.94,10.0,SSW,10.4,20.7,0.01,Rain,Light Rain,200,2013-06-10 16:53:00
1:13 PM,75.2,68.0,78,29.98,10.0,SSW,16.1,20.7,0.00,,Scattered Clouds,200,2013-06-10 17:13:00
1:53 PM,75.9,68.0,76,29.90,10.0,SSW,13.8,19.6,0.00,,Mostly Cloudy,210,2013-06-10 17:53:00
2:22 PM,73.4,69.8,88,29.98,2.0,WSW,21.9,28.8,0.06,Rain,Light Rain,250,2013-06-10 18:22:00
2:30 PM,69.8,64.4,83,29.98,3.0,WSW,11.5,29.9,0.07,Rain,Light Rain,250,2013-06-10 18:30:00
2:53 PM,68.0,63.0,84,29.89,10.0,South,4.6,-,0.08,Rain,Light Rain,190,2013-06-10 18:53:00
3:53 PM,75.0,64.0,69,29.87,10.0,SW,10.4,-,0.00,,Clear,220,2013-06-10 19:53:00
4:53 PM,75.9,64.0,67,29.86,10.0,SSW,10.4,-,N/A,,Clear,200,2013-06-10 20:53:00
5:53 PM,77.0,64.0,64,29.85,10.0,SW,11.5,-,N/A,,Clear,220,2013-06-10 21:53:00
6:53 PM,75.0,64.9,71,29.86,10.0,SSW,9.2,-,N/A,,Clear,200,2013-06-10 22:53:00
7:53 PM,73.9,66.0,76,29.86,10.0,SSW,11.5,-,N/A,,Clear,200,2013-06-10 23:53:00
8:53 PM,72.0,66.0,81,29.87,10.0,South,5.8,-,N/A,,Clear,190,2013-06-11 00:53:00
9:53 PM,70.0,64.9,84,29.91,10.0,SSW,3.5,-,N/A,,Clear,200,2013-06-11 01:53:00
10:53 PM,69.1,64.9,87,29.92,10.0,South,4.6,-,N/A,,Clear,190,2013-06-11 02:53:00
11:53 PM,68.0,64.9,90,29.92,10.0,SSW,5.8,-,N/A,,Scattered Clouds,200,2013-06-11 03:53:00